sat.trackr.live / text

‹ back to catalog

STARLINK-31335

NORAD 58969 · 2024-031E

PAYLOAD ACTIVE UNKNOWN

§ Identity

Operator
Country
US
Launch date
2024-02-15
Launch site
AFWTR
Launch vehicle
Mass (kg)
RCS (m²)

Purposes: comms

External: N2YO · Heavens-Above · Gunter

§ Orbital elements

Epoch: 2026-09-19T22:23:07.173024Z

Period
93.85 min
Inclination
53.1588°
Eccentricity
0.0001203
Mean motion
15.34392778 rev/d
Perigee alt
461.9 km
Apogee alt
463.5 km
Semi-major
6,840.9 km
B*
2.3051e-5
RAAN
108.0052°
Arg perigee
85.7101°
Mean anomaly
274.4039°
Rev number
14,635

§ Raw data

STARLINK-313351 58969U 24031E   26262.93272191  .00000403  00000+0  23051-4 0  99902 58969  53.1588 108.0052 0001203  85.7101 274.4039 15.34392778146350

JSON: /api/v1/satellites/58969 · /tle

For live sub-satellite position, see the globe view (requires WebGL).

§ Visibility from observer

Set your observer location to see the next 7 days of passes ≥ 10°. The values pass through the URL so the page stays shareable.

No JS? Fill the form by hand. The geolocation button needs JavaScript.